Regional Weather Roundup
Issued by NWS

Home | Current Version | Previous Version | Graphics & Text | Print | Product List | Glossary Off
Versions: 1 2 3 4 5 6 7 8 9 10 11 12 13 14 15 16 17 18 19 20 21 22 23 24 25 26 27 28 29 30 31 32 33 34 35 36 37 38 39 40 41 42 43 44 45 46 47 48 49 50

044
ASUS43 KDMX 240003
RWRIA

WEATHER ROUNDUP FOR IOWA
NATIONAL WEATHER SERVICE DES MOINES IA
700 PM CDT SAT JUL 23 2016

NOTE: "FAIR" INDICATES FEW OR NO CLOUDS BELOW 12,000 FEET WITH NO
SIGNIFICANT WEATHER AND/OR OBSTRUCTIONS TO VISIBILITY.

* - THESE STATIONS ARE NOT NWS STATIONS...THUS NOT UNDER NWS
QUALITY CONTROL.  THEY ALSO DO NOT REPORT WEATHER SUCH
AS PRECIPITATION OR FOG.

IAZ001>003-012>014-020>022-031>034-043>046-240100-
   NORTHWEST IOWA

CITY           SKY/WX    TMP DP  RH WIND       PRES   REMARKS
CARROLL *      SUNNY     88  79  74 S7        29.79F HX 102
CHEROKEE *     CLOUDY    86  78  77 S9        29.77R HX  99
DENISON *      SUNNY     88  77  70 S8G18     29.77S HX 100
LE MARS *      CLOUDY    88  79  74 S10G17    29.76S HX 102
SHELDON *      MOSUNNY   86  79  79 S14       29.76S HX  99
SIOUX CITY     CLOUDY    89  77  67 SE8       29.74F HX 101
6HR MIN TEMP:  88; 6HR MAX TEMP:  94;

SPENCER        CLOUDY    85  76  74 S9        29.77F HX  94
6HR MIN TEMP:  82; 6HR MAX TEMP:  88;

STORM LAKE *     N/A     84  79  84 S8        29.80S HX  96
$$

IAZ055>058-069>071-079>083-090>094-240100-
   SOUTHWEST IOWA

CITY           SKY/WX    TMP DP  RH WIND       PRES   REMARKS
ATLANTIC *     SUNNY     88  79  74 S10G16    29.79F HX 102
CLARINDA *       N/A     86  79  79 MISG      29.82F HX  99
COUNCIL BLFS * SUNNY     90  79  70 S9        29.79S HX 105
CRESTON *      MOSUNNY   88  77  70 S14       29.85F HX 100
HARLAN  *      SUNNY     88  79  74 S12       29.82F HX 102
LAMONI         CLOUDY    86  77  74 S7        29.85F HX  97
6HR MIN TEMP:  86; 6HR MAX TEMP:  90;

RED OAK *      MOSUNNY   88  79  74 S14       29.79F HX 102
SHENANDOAH *   PTSUNNY   88  79  74 S14G20    29.79F HX 102
$$

IAZ047>049-059>061-072>074-084-240100-
   CENTRAL IOWA

CITY           SKY/WX    TMP DP  RH WIND       PRES   REMARKS
AMES           SUNNY     88  81  79 S7        29.81S HX 106
6HR MIN TEMP:  84; 6HR MAX TEMP:  90; 6HR PCP:  0.01;

ANKENY *         N/A    N/A N/A N/A MISG        N/A
BOONE *        SUNNY     88  79  74 S8G14     29.81S HX 102
CHARITON *       N/A    N/A N/A N/A MISG        N/A
DES MOINES     MOSUNNY   90  77  65 S10       29.81S HX 103
6HR MIN TEMP:  87; 6HR MAX TEMP:  93; 6HR PCP: TRACE;

GRINNELL*      SUNNY     89  78  69 S9        29.84F HX 103
KNOXVILLE *    SUNNY     88  79  74 S10       29.82F HX 102
MARSHALLTOWN   SUNNY     87  82  85 SE6       29.82F HX 106
6HR MIN TEMP:  84; 6HR MAX TEMP:  89; 6HR PCP:  0.03;

NEWTON *       SUNNY     88  81  79 S9        29.82F HX 105
PELLA *        SUNNY     90  78  68 S5        29.84F HX 103
PERRY *          N/A     89  80  76 S6        29.81S HX 106
$$

IAZ004>006-015-016-023>025-035-036-240100-
   NORTH CENTRAL IOWA

CITY           SKY/WX    TMP DP  RH WIND       PRES   REMARKS
ALGONA *       CLOUDY    84  77  79 S10       29.79F HX  94
ESTHERVILLE    CLOUDY    83  78  85 SE10      29.77F HX  93
6HR MIN TEMP:  75; 6HR MAX TEMP:  85;

FORT DODGE *   CLOUDY    86  79  79 S7        29.80F HX  99
MASON CITY     CLOUDY    79  73  82 S9        29.83F HX  82
6HR MIN TEMP:  75; 6HR MAX TEMP:  79; 6HR PCP:  0.07;

FOREST CITY *    N/A     77  73  88 SE12      29.81F
IOWA FALLS *     N/A     85  80  83 SE9       29.83F HX 100
$$

IAZ007>011-017>019-026>030-037>042-050>054-066-240100-
   NORTHEAST IOWA

CITY           SKY/WX    TMP DP  RH WIND       PRES   REMARKS
CEDAR RAPIDS   CLOUDY    77  75  93 E13       29.85F
6HR MIN TEMP:  75; 6HR MAX TEMP:  89; 6HR PCP:  0.03;

CHARLES CITY * CLOUDY    75  73  94 SE12G17   29.83F
CLINTON *      CLOUDY    82  79  90 N22G33    29.94R HX  92
DECORAH *      CLOUDY    72  72 100 SE9G17    29.84F
DUBUQUE        LGT RAIN  71  70  96 SE12      29.92F
6HR MIN TEMP:  71; 6HR MAX TEMP:  79; 6HR PCP:  0.49;

MONTICELLO *     N/A     73  70  88 E8G17     29.86F
OELWEIN *      CLOUDY    75  72  88 SE13      29.85F
WATERLOO       MOSUNNY   78  73  84 SE8       29.82F HX  81
6HR MIN TEMP:  73; 6HR MAX TEMP:  85; 6HR PCP:  0.59;

$$

IAZ064-065-067-068-078-240100-
   EAST CENTRAL IOWA

CITY           SKY/WX    TMP DP  RH WIND       PRES   REMARKS
DAVENPORT      CLOUDY    85  79  82 SE7       29.89R HX  98
6HR MIN TEMP:  85; 6HR MAX TEMP:  89;

IOWA CITY      CLOUDY    87  80  79 SE6       29.86F HX 103
6HR MIN TEMP:  87; 6HR MAX TEMP:  92; 6HR PCP: TRACE;

MT. PLEASANT * CLOUDY    90  82  77 S6        29.86F HX 109
MUSCATINE *    CLOUDY    90  81  74 S9        29.86R HX 108
QUAD CITIES    CLOUDY    87  79  76 SE6       29.88R HX 101
6HR MIN TEMP:  87; 6HR MAX TEMP:  91;

$$

IAZ062-063-075>077-085>089-095>099-240100-
   SOUTHEAST IOWA

CITY           SKY/WX    TMP DP  RH WIND       PRES   REMARKS
BURLINGTON     CLOUDY    89  81  77 S9        29.86F HX 108
6HR MIN TEMP:  88; 6HR MAX TEMP:  92;

FAIRFIELD *    CLOUDY    88  79  74 S7        29.85F HX 102
KEOKUK *       CLOUDY    90  82  79 S6        29.85F HX 111
CENTERVILLE *    N/A     86  77  74 CALM      29.88S HX  97
OTTUMWA        CLOUDY    88  77  69 S8        29.83F HX 100
6HR MIN TEMP:  85; 6HR MAX TEMP:  92;

WASHINGTON *   CLOUDY    88  82  84 S8G14     29.86F HX 108
$$

ABBREVIATIONS USED IN REMARKS
   TC - TEMPERATURES IN CELSIUS
  WCI - WIND CHILL INDEX
   HX - HEAT INDEX
  VSB - VISIBILITY
$$





USA.gov is the U.S. government's official web portal to all federal, state and local government web resources and services.